Location: Montreal
(45.5000°N, 73.5833°W)
Time: 06:47:15
(UTC-04:00)

Envisat - Pass Details

Date: 07 October 2017
Orbit: 764 x 766 km, 98.2° (Epoch: 20 October)

Event Time Altitude Azimuth Distance (km) Brightness Sun altitude
Exits shadow 19:38:11 21° 104° (ESE) 1,693 4.2 -14.0°
Maximum altitude 19:40:25 28° 65° (ENE) 1,398 3.9 -14.4°
Drops below altitude 10° 19:44:43 10° 7° (N) 2,313 5.5 -15.2°
Sets 19:47:17 0° 356° (N) 3,243 6.4 -15.6°
